Other Public Products
Issued by NWS Grand Forks, ND

Home | Current Version | Previous Version | Graphics & Text | Print | Product List | Glossary On
Versions: 1 2 3 4 5 6 7 8 9 10 11 12 13 14 15 16 17 18 19 20 21 22 23 24 25 26 27 28 29 30 31 32 33 34 35 36 37 38 39 40 41 42 43 44 45 46 47 48 49 50
000
FPUS83 KFGF 152310
OPUFGF
PRAIRIE TO PINES WEATHER ROUNDUP
NATIONAL WEATHER SERVICE EASTERN NORTH DAKOTA/GRAND FORKS ND
500 PM CST FRI DEC 15 2017

 **SATELLITE DATA USED TO AUGMENT SKY COVER AT AUTOMATED STATIONS**
 *****  WEATHER ACROSS EASTERN NORTH DAKOTA  *****

CITY           SKY/WX    TMP DP  RH WIND       PRES   REMARKS
GRAND FORKS    LGT SNOW  23  21  92 SE10      29.65F FOG     WCI  12
GRND FORKS AFB FLURRIES  22  20  90 S9        29.64S WCI  12
GRND FORKS NWS   N/A     23 N/A N/A SE6         N/A  WCI  16
BUXTON         NOT AVBL
DEVILS LAKE    LGT SNOW  28  27  93 SE8       29.56S FOG     WCI  20
FARGO          LGT SNOW  28  26  92 SE10      29.65F FOG     WCI  19
WAHPETON ARPT  CLOUDY    30  27  86 SE10      29.66F WCI  21
$$

 *****  WEATHER ACROSS CENTRAL AND WESTERN NORTH DAKOTA  *****

CITY           SKY/WX    TMP DP  RH WIND       PRES   REMARKS
JAMESTOWN      CLOUDY    32  31  96 S7        29.55F
BISMARCK       FAIR      43  24  47 W8        29.55S
MINOT          FAIR      40  25  55 SW8       29.48F
MINOT AFB      FAIR      37  26  64 SW6       29.47F
GARRISON         N/A     35  24  64 W6        29.52S
WILLISTON      PTCLDY    43  25  49 W10       29.55R
DICKINSON      FAIR      41  22  46 W13       29.55S
HETTINGER      FAIR      42  20  41 W15       29.61R
$$

 *****  OTHER OBSERVATIONS NORTHEAST NORTH DAKOTA  *****

CITY           SKY/WX    TMP DP  RH WIND       PRES   REMARKS
WALHALLA       LGT SNOW  21  21 100 SE9       29.64R VSB 1   WCI  11
LANGDON        LGT SNOW  23  23 100 SE12      29.58R WCI  12
CAVALIER       SNOW      19  19 100 VRB8G14   29.65S VSB 1/2 WCI   9
GRAFTON        CLOUDY    21  19  93 SE10      29.68S FOG     WCI  10
CANDO          LGT SNOW  28  28 100 SE9       29.56F VSB 1   WCI  20
FORT TOTTEN      N/A     29  29  99 SE7       29.95S WCI  22
ROLLA          LGT SNOW  27  27 100 SE12      29.51F VSB 1   WCI  16
RUGBY          CLOUDY    34  28  80 SE6       29.50F
 ***** THE ABOVE OBSERVATIONS ARE NON NWS ARE NOT QUALITY
        CONTROLLED AND MAY MIS-REPORT RAIN FOR SNOW...
$$

 *****  OTHER OBSERVATIONS SOUTHEAST NORTH DAKOTA *****

CITY           SKY/WX    TMP DP  RH WIND       PRES   REMARKS
COOPERSTOWN    LGT SNOW  27  27 100 SE10      29.59S WCI  17
VALLEY CITY    LGT SNOW  28  28 100 SE9       29.61S WCI  20
OAKES            N/A     34  32  93 S7        29.60S
GWINNER          N/A     34  30  86 S7        29.61F
BUFFALO        NOT AVBL
WYNDMERE       NOT AVBL
 ***** THE ABOVE OBSERVATIONS ARE NON NWS ARE NOT QUALITY
       CONTROLLED AND MAY MIS-REPORT RAIN FOR SNOW...
$$

  *****  WEATHER ACROSS NORTHERN MINNESOTA  *****

CITY           SKY/WX    TMP DP  RH WIND       PRES   REMARKS
FLAG ISLAND    FLURRIES   7   3  85 E5        29.74F WCI  -2
WARROAD        FLURRIES  10   7  85 E8        29.73F WCI  -1
ROSEAU         FLURRIES  14   9  79 E10       29.72S WCI   1
HALLOCK        LGT SNOW  18  16  93 E10       29.68R WCI   6
THF RVR FALLS  LGT SNOW  18  14  86 SE10      29.68F FOG     WCI   6
HALSTAD        NOT AVBL
FOSSTON        LGT SNOW  18  12  79 SE5       29.68S WCI  11
BAUDETTE       FLURRIES  10   5  80 E8        29.73S WCI  -2
WASKISH        FLURRIES  12   9  85 E3        29.72F
CROOKSTON      LGT SNOW  21  18  86 SE10      29.68F WCI  10
$$
  *****  WEATHER ACROSS CENTRAL AND WEST MINNESOTA  *****

CITY           SKY/WX    TMP DP  RH WIND       PRES   REMARKS
BEMIDJI        CLOUDY    14   9  81 E6        29.69F WCI   5
PARK RAPIDS    LGT SNOW  18  13  80 SE6       29.68F WCI  10
WADENA         FLURRIES  21  18  86 SE3       29.68F
DETROIT LAKES  FAIR      23  21  93 SE7       29.67F WCI  15
MOORHEAD       LGT RAIN  27  25  93 SE8       29.66F WCI  18
FERGUS FALLS   LGT SNOW  27  27 100 S10       29.70F WCI  17
ELBOW LAKE     CLOUDY    28  27  96 E9        29.68F FOG     WCI  19
MORRIS MN      CLOUDY    30  28  93 SE7       29.67F WCI  23
STAPLES        LGT SNOW  19  16  86 CALM      29.70S
WHEATON        FAIR      30  28  93 SE9       29.68F WCI  22
$$
  *****  WEATHER ELSEWHERE ACROSS MINNESOTA  *****

CITY           SKY/WX    TMP DP  RH WIND       PRES   REMARKS
DULUTH         CLOUDY    11   4  73 NE3       29.73S
INTRNTL FALLS  CLOUDY     7   1  76 NE6       29.75F WCI  -3
ELY            FAIR       1  -2  85 CALM      29.73S
CLOQUET        CLOUDY    16   7  67 CALM      29.74R
BRAINERD       FLURRIES  21  13  71 S6        29.72F WCI  13
HIBBING        CLOUDY    10   3  73 CALM      29.73S
ALEXANDRIA     CLOUDY    27  23  85 SE7       29.69F WCI  19
SAINT CLOUD    CLOUDY    24  19  81 SE7       29.73F WCI  16
MINNEAPOLIS    CLOUDY    27  22  81 SE6       29.77F WCI  20
$$

  *****  WEATHER ACROSS SOUTH DAKOTA  *****

CITY           SKY/WX    TMP DP  RH WIND       PRES   REMARKS
SIOUX FALLS    MOCLDY    37  26  64 S9        29.70F
BROOKINGS      CLOUDY    37  26  64 S8        29.67F
WATERTOWN      CLOUDY    35  29  78 S8        29.63F
HURON          FAIR      40  27  59 S8        29.65S
SISSETON         N/A     35  30  82 SE8       29.62F
ABERDEEN       MOCLDY    38  26  62 S10       29.60F
MITCHELL       FAIR      43  28  55 SW7       29.68S
PIERRE         FAIR      48  27  44 W13       29.62F
MOBRIDGE       FAIR      44  28  53 CALM      29.56F
RAPID CITY     FAIR      48  17  29 E3        29.68F
$$

  *****  SOME WEATHER IN NEARBY STATES *****

CITY           SKY/WX    TMP DP  RH WIND       PRES   REMARKS
GLASGOW MT     FAIR      38  25  59 NE7       29.59S
GREAT FALLS MT FAIR      46  17  31 SW23      29.73S
CHEYENNE WY    FAIR      48   9  20 W13       29.90S
SCOTTSBLUFF NE FAIR      55  13  18 W16G24    29.80F
OMAHA NE       MOCLDY    48  24  39 S10G26    29.82F
DES MOINES IA  MOCLDY    43  21  41 SW13      29.85F
DAVENPORT IA   CLOUDY    36  23  59 SW9       29.91F
CHICAGO IL     CLOUDY    33  21  61 SW8       29.89F
EAU CLAIRE WI  CLOUDY    22  15  75 CALM      29.80S
LA CROSSE WI   CLOUDY    32  27  81 S5        29.82S
$$

  *****  SOME NATIONAL WEATHER *****

CITY           SKY/WX    TMP DP  RH WIND       PRES   REMARKS
LA GUARDIA NY  LGT SNOW  25  22  88 VRB5      29.92F VSB 3/4 WCI  19
RALEIGH NC     MOCLDY    39  27  62 CALM      29.99R
ATLANTA GA     MOCLDY    37  24  59 NW14      30.13R
NEW ORLEANS LA MOCLDY    49  37  63 N6        30.22R
OKLAHOMA CITY  FAIR      47  22  37 SW9       30.13F
ALBUQUERQUE NM FAIR      47  15  27 S7        30.16F
SALT LAKE CITY MOCLDY    38  26  62 NW7       30.11F
LOS ANGELES CA FAIR      73  30  20 W9        30.02F
BOISE ID       CLOUDY    28  22  78 N6        30.16F WCI  22
SEATTLE WA     CLOUDY    42  40  92 S8        30.17S
$$

*** WEATHER ACROSS MANITOBA...SASKATCHEWAN AND ONTARIO ***
                ***ONTARIO***

CITY           SKY/WX    TMP DP  RH WIND       PRES   REMARKS
GERALDTON      MOCLDY    -8 -13  77 N3        29.78R
THUNDER BAY    PTCLDY     7  -2  66 NW3       29.82R
SIOUX LOOKOUT  FLURRIES  -6 -11  77 VRB3      29.80R
TORONTO        FLURRIES  23  19  86 SW10      29.71S WCI  12
BIG TROUT LK   FLURRIES  -8 -13  77 NW6       29.88R WCI -21
PICKLE LAKE    CRYSTALS -13 -18  77 N2        29.82S
DRYDEN         FLURRIES  -6  -9  84 NE7       29.77R WCI -20
KENORA         FLURRIES   0  -4  85 E5        29.75S WCI -10
$$
                *** MANITOBA***

CITY           SKY/WX    TMP DP  RH WIND       PRES   REMARKS
BRANDON        LGT SNOW  19  16  86 E20       29.55S VSB 3/4 WCI   4
DAUPHIN        LGT SNOW  16  12  86 E17G23    29.59F WCI   0
ISLAND LAKE    PTCLDY   -11 -17  77 E3        29.89R
PILOT MOUND      N/A     25  23  93 E12         N/A  WCI  14
THE PAS        LGT SNOW   3  -2  78 E9G18     29.65F VSB 1   WCI -11
THOMPSON       MOCLDY   -18 -24  76 NE2       29.86R
WINNIPEG       FLURRIES  12   7  79 E16G22    29.71S WCI  -4
LYNN LAKE      CLOUDY   -15 -18  84 E8        29.71F WCI -32
CHURCHILL      LGT SNOW -11 -17  77 NW9       29.96S FOG     WCI -29
GILLAM         CLEAR    -20 -26  76 W2        29.93R
$$
                ***SASKATCHEWAN***

CITY           SKY/WX    TMP DP  RH WIND       PRES   REMARKS
ESTEVAN        CLOUDY    41  30  65 W16       29.49S
KINDERSLEY     MOCLDY    36  28  75 W13       29.61R
LLOYDMINSTER   MOCLDY    37  28  70 NW13G21   29.55R
PRINCE ALBERT  FLURRIES  21  18  86 E7        29.48S WCI  13
REGINA         CLOUDY    37  32  81 W10       29.52R
YORKTON        FLURRIES  25  23  93 E12       29.48R WCI  14
N. BATTLEFORD  MOCLDY    37  30  75 W16       29.54R



USA.gov is the U.S. government's official web portal to all federal, state and local government web resources and services.